Wind_Speed
4 5 6 8 9 9 8 7 7 7 7 8 8 9 9 9 7 5 5 6 6 6 5 5 5 6 6 5 5 5 8 17 21 21 17 11 16 18 14 13 13 10 8 8 7 4 1 2 3 2 4 2 2 0 1 2 2 2 2 2 2 1 2 3 5 5 5 8 8 8 6 7 10 6 4 3 3 6 8 6 6 6 7 10 11 12 15 18
5 6 7 9 9 8 7 7 7 7 6 7 8 9 9 8 6 4 4 4 5 6 6 6 6 8 9 5 2 4 5 10 15 17 15 14 19 20 15 14 14 9 7 7 6 4 1 2 3 1 3 2 1 0 1 2 3 1 1 2 1 2 3 3 5 4 5 8 10 9 4 4 8 7 5 6 7 6 7 8 8 9 9 10 13 16 18 18
6 7 8 9 9 7 6 7 6 6 6 7 8 9 9 8 5 3 3 4 5 7 6 7 9 11 9 5 1 5 6 2 10 12 14 18 20 21 17 14 14 8 5 5 4 3 2 2 2 1 1 2 2 1 1 2 2 0 1 2 3 3 1 2 3 4 5 6 10 9 3 4 5 4 4 7 10 9 11 14 15 17 18 18 17 19 19 18
7 9 9 9 8 6 6 6 5 5 6 7 8 10 10 7 4 3 3 4 5 7 7 9 12 11 7 5 2 7 8 2 7 8 15 20 21 22 18 13 12 7 4 4 3 2 2 2 2 1 1 2 2 1 1 3 2 1 1 2 4 2 1 3 3 5 5 4 7 9 5 4 3 2 5 8 9 10 13 15 14 15 16 17 16 18 20 21
9 9 8 8 6 6 6 5 4 4 6 7 9 9 9 7 4 3 3 4 6 8 8 10 13 9 8 9 2 8 8 1 5 11 18 21 22 21 16 12 11 7 5 4 3 3 2 2 2 2 2 3 2 1 2 3 2 1 2 2 3 1 3 5 5 5 5 4 5 7 6 6 4 3 4 9 11 10 12 13 12 11 12 14 16 19 22 24
9 8 7 7 5 5 5 4 4 4 6 7 9 9 8 7 4 3 3 4 7 9 8 11 13 7 11 16 10 7 4 1 6 14 20 21 21 19 12 10 11 8 5 3 3 2 2 2 1 1 2 2 2 2 2 2 2 0 3 2 2 2 4 7 6 5 3 4 5 7 6 5 4 5 4 9 13 9 9 10 10 12 15 17 20 22 23 23
8 8 7 5 5 5 4 3 4 4 6 7 9 8 7 6 4 4 3 6 7 8 9 11 13 6 6 11 14 11 7 4 9 17 21 22 19 13 7 8 10 10 7 5 4 2 3 4 3 2 2 3 2 2 1 1 1 1 3 3 2 2 5 7 5 4 2 2 6 7 4 4 6 5 2 10 13 9 9 9 11 16 19 22 23 22 23 24
7 7 5 5 5 4 3 3 3 4 6 7 8 7 6 6 4 4 4 6 7 8 10 12 14 6 3 2 5 8 8 6 14 21 24 21 12 6 5 8 9 11 12 11 6 1 2 3 3 2 1 4 1 2 1 1 1 3 3 3 2 2 6 6 3 3 1 1 5 6 2 6 5 2 5 13 11 8 10 11 15 18 21 23 23 22 22 23
7 5 5 4 4 3 2 2 3 5 7 7 7 6 6 6 4 4 4 6 7 7 8 11 16 11 3 1 1 4 7 10 16 22 23 15 8 5 6 7 9 11 11 12 8 3 1 1 1 2 3 4 1 2 2 2 2 4 3 2 2 2 6 6 3 6 2 0 8 6 6 8 2 3 8 14 9 7 12 15 17 19 22 21 19 20 21 21
6 5 4 4 3 2 2 3 4 6 7 6 6 6 6 5 4 4 4 5 6 7 7 8 15 19 13 3 2 6 7 11 17 20 16 10 6 4 6 7 9 10 8 10 11 8 4 2 2 1 4 5 2 2 3 3 2 2 2 2 2 2 3 6 5 9 3 2 9 8 5 6 1 1 8 11 8 8 14 18 18 19 21 20 18 19 21 23
5 4 3 3 2 2 2 4 5 6 7 5 5 6 5 5 4 4 4 5 6 8 8 6 7 15 18 11 8 8 7 12 17 18 12 7 6 6 7 8 9 10 8 10 12 10 7 4 3 1 2 3 3 3 2 3 1 1 2 4 2 2 0 7 7 9 5 2 8 7 1 4 3 4 8 7 6 9 16 18 19 19 18 18 19 18 20 23
4 3 3 2 2 2 3 4 5 6 5 5 5 5 5 4 3 3 3 3 6 8 7 6 5 5 8 11 10 6 8 13 17 16 11 6 8 10 9 9 11 12 10 10 10 10 9 5 3 3 2 2 2 2 3 1 2 1 1 2 3 4 1 9 7 8 6 2 8 4 3 6 9 9 8 6 5 12 17 17 17 17 16 16 17 16 17 22
3 3 2 2 2 2 3 4 5 6 5 5 5 6 6 5 3 2 2 2 5 9 7 5 7 4 3 5 6 9 12 15 18 17 14 9 7 9 11 9 10 12 12 13 10 8 9 7 7 8 3 1 2 1 2 1 1 1 2 1 2 3 1 8 6 11 6 1 9 5 2 7 11 11 11 9 7 13 17 16 15 14 14 14 15 15 16 20
2 2 2 2 2 3 4 5 6 5 5 6 7 9 9 6 3 1 1 2 5 8 7 5 7 7 5 3 3 13 16 16 22 21 19 15 7 6 11 10 10 12 12 13 10 8 8 6 8 9 3 3 2 1 1 1 1 1 1 1 3 2 5 8 6 12 8 2 10 8 0 6 10 13 14 10 9 15 16 15 14 13 13 13 13 14 14 18
3 2 2 2 2 3 5 6 6 5 6 8 10 12 13 7 1 1 1 2 6 8 5 5 6 5 5 4 2 15 20 19 25 26 21 17 11 6 9 10 11 13 13 10 8 8 9 6 5 5 3 1 1 1 0 1 2 3 2 3 5 4 7 6 5 9 8 4 11 8 1 5 11 15 13 9 11 16 16 14 14 14 14 13 12 13 13 15
3 2 2 2 3 4 5 6 6 7 7 8 10 13 16 10 1 2 1 1 5 10 7 4 6 4 4 3 5 13 17 17 22 25 18 14 15 8 6 9 8 10 11 10 7 6 9 8 4 3 3 2 1 0 0 2 4 5 5 4 5 5 7 6 3 6 7 5 7 7 3 4 8 12 11 9 12 16 15 14 14 14 13 13 11 12 12 13
3 2 2 3 4 5 5 6 5 5 5 5 7 10 18 18 7 2 2 2 4 9 10 9 6 3 5 6 6 9 11 13 18 24 19 11 13 11 6 4 2 1 2 6 8 6 8 6 1 1 4 6 5 2 1 5 6 5 6 4 3 4 5 7 2 4 8 6 5 4 4 7 7 9 11 10 11 15 15 13 13 13 12 12 11 11 12 13
2 2 3 4 4 5 6 5 3 2 1 0 3 4 12 22 20 13 8 5 3 3 7 12 8 3 4 8 6 8 12 12 16 22 20 10 8 12 10 4 3 5 4 2 8 8 5 3 0 2 5 8 8 6 5 5 4 4 6 5 4 5 4 6 7 6 10 9 6 5 5 9 8 8 10 11 11 14 14 12 12 12 12 12 12 11 12 13
3 3 4 4 5 6 6 5 2 2 4 4 3 2 2 10 18 22 23 16 7 4 3 7 7 2 2 7 8 12 11 9 13 20 21 14 6 7 11 8 2 3 2 2 8 8 4 2 3 4 6 8 8 7 5 3 3 3 4 3 4 7 6 8 7 6 9 10 6 6 6 7 8 8 9 9 10 13 13 12 11 11 11 11 11 11 12 13
2 3 4 4 5 7 7 6 5 5 3 3 2 1 1 1 5 10 17 16 8 4 3 2 3 2 2 4 10 16 8 4 9 21 26 18 6 2 7 7 2 6 6 2 5 4 2 5 7 5 6 7 6 5 3 2 2 2 2 3 5 5 7 10 5 4 6 7 2 4 6 8 7 7 8 7 9 13 12 12 12 11 11 11 12 12 13 13
3 3 4 5 6 7 9 9 9 9 7 3 3 3 1 0 3 3 2 6 4 4 5 2 2 2 2 4 11 15 5 2 7 21 29 18 4 3 6 6 4 7 5 2 2 2 2 8 7 5 5 5 5 3 2 0 1 2 3 5 6 3 7 12 6 2 3 5 1 2 4 7 7 7 8 7 9 12 12 12 12 12 11 10 11 13 13 12
3 3 4 5 6 7 8 9 11 10 10 10 10 8 3 2 6 6 3 4 4 5 4 2 3 3 2 2 11 13 3 3 9 19 30 20 8 5 3 5 8 6 4 1 1 2 6 8 5 4 2 1 1 2 1 1 1 3 3 5 6 5 7 9 2 4 1 3 0 1 2 4 7 6 7 8 9 9 9 11 11 11 11 10 11 12 13 13
3 3 4 5 6 6 6 7 9 10 12 13 12 8 5 6 8 6 2 4 3 2 1 3 4 5 4 4 13 14 5 7 7 15 26 17 7 4 2 5 7 5 6 6 5 6 6 6 4 2 1 2 1 2 1 2 1 2 3 6 6 8 8 4 1 2 5 4 3 2 1 4 6 6 7 7 6 7 7 9 9 9 10 10 10 11 12 14
3 3 5 5 5 4 4 5 7 9 13 14 13 9 7 6 6 5 2 2 2 1 1 2 2 4 5 5 14 11 6 6 3 10 21 14 4 1 2 4 3 4 6 6 7 9 6 3 2 1 1 1 2 2 4 2 2 1 2 5 8 9 8 7 6 10 9 2 2 5 4 4 6 5 5 4 4 6 6 8 8 8 9 9 9 11 12 13
4 4 5 4 3 3 2 4 7 7 8 10 10 8 6 5 3 4 2 1 2 1 1 1 2 5 5 7 15 7 3 4 3 6 13 12 6 2 1 1 2 5 3 3 4 6 5 2 1 1 1 3 1 3 5 4 4 1 1 3 8 10 10 11 9 10 7 0 2 3 5 1 6 7 4 3 3 5 6 8 9 9 9 10 10 11 12 13
4 5 5 3 2 1 1 2 5 5 4 5 5 3 3 4 3 3 2 1 3 2 4 3 2 9 9 9 13 4 3 3 3 7 11 11 6 1 2 1 1 4 1 1 2 2 3 1 1 1 1 2 3 3 3 2 4 4 3 3 6 8 10 10 7 6 5 5 2 1 5 5 3 7 6 5 4 5 6 8 9 9 10 10 10 11 12 13
4 5 4 2 1 3 2 1 4 4 2 2 2 1 1 1 3 3 1 1 4 2 5 6 4 9 10 10 13 2 1 6 3 8 13 13 7 1 2 3 1 3 1 1 1 2 2 1 1 2 2 3 4 3 2 1 4 5 4 5 7 9 10 6 4 4 3 5 3 2 2 6 4 3 7 5 2 4 6 7 7 8 9 10 10 11 12 13
4 4 3 2 2 4 4 2 3 3 2 2 3 1 2 2 2 1 0 2 3 2 2 3 4 8 8 10 12 5 2 7 3 7 14 14 9 1 2 4 2 2 1 1 2 3 1 3 4 4 5 5 4 4 2 2 3 4 4 6 7 7 7 4 4 5 1 2 2 3 1 6 8 1 6 6 4 1 5 6 7 8 10 11 11 12 14 14
4 4 3 2 2 4 5 3 4 4 3 4 5 4 2 2 1 1 2 2 2 2 1 3 5 7 8 6 8 7 2 4 3 7 13 10 10 5 3 2 2 2 1 1 4 2 0 2 2 2 4 5 5 4 2 4 2 6 8 7 4 3 3 2 3 4 2 2 4 5 4 6 10 6 2 5 3 2 5 6 8 11 11 12 12 13 15 14
4 4 4 2 1 1 2 4 5 5 4 4 4 4 2 1 1 1 3 1 2 3 0 3 4 4 8 6 5 7 6 4 3 6 5 3 7 7 4 1 0 3 0 2 4 1 1 1 0 1 2 3 5 3 2 4 5 8 8 7 3 4 3 3 2 3 3 4 5 5 4 5 9 7 1 1 2 1 4 6 9 13 13 13 12 12 15 14
4 4 3 1 1 1 2 2 4 3 3 2 2 2 1 0 1 3 3 1 1 3 1 3 3 3 7 6 4 7 5 4 5 7 6 3 6 8 4 2 1 1 1 2 4 2 2 1 1 0 1 2 3 2 2 3 6 5 6 9 7 2 2 1 1 3 4 7 4 4 2 5 8 5 2 5 4 2 2 7 12 15 15 14 12 12 14 14
5 4 2 2 1 2 2 2 1 2 1 1 1 1 1 1 3 3 1 2 1 3 2 2 3 4 5 2 3 7 4 3 5 6 6 4 6 7 6 6 3 2 3 4 4 3 2 2 1 1 1 1 4 3 1 2 3 4 7 9 9 6 6 5 6 6 5 8 4 3 3 7 8 3 5 6 4 2 3 5 9 13 14 15 15 14 13 14
7 5 4 5 3 2 3 3 2 1 1 1 0 1 2 3 3 1 2 3 2 2 2 1 3 4 4 2 4 5 2 2 5 4 3 1 3 4 3 5 4 3 2 3 4 4 1 2 1 0 2 1 3 4 3 2 4 7 7 8 8 6 6 6 7 7 7 10 7 2 4 7 8 2 5 6 3 1 4 6 9 12 13 15 15 15 15 17
10 7 6 8 7 4 3 2 2 2 2 2 1 2 6 5 1 1 2 2 2 2 1 1 4 3 1 2 3 4 1 2 3 4 4 2 3 3 2 5 7 3 2 1 1 3 2 1 2 3 2 2 3 4 4 3 3 3 2 4 5 4 4 5 6 7 9 12 13 9 4 6 8 2 6 5 1 4 6 7 10 14 14 14 15 17 19 20
13 12 13 14 13 9 4 2 1 1 1 3 3 4 6 3 2 1 0 2 1 3 2 1 3 2 1 2 0 1 1 1 1 2 4 4 3 4 3 4 8 5 2 1 1 1 3 1 2 3 2 3 4 2 1 2 1 2 0 2 5 5 3 5 7 7 9 10 10 7 4 5 5 3 6 2 3 6 10 12 15 18 17 17 17 19 20 20
12 15 17 19 17 11 6 3 1 2 2 3 5 5 3 1 0 1 1 2 1 3 3 2 2 2 2 1 1 1 1 1 1 1 3 3 1 2 2 2 5 4 2 2 1 1 2 1 2 2 1 3 4 2 1 3 2 1 2 4 6 4 3 4 7 7 6 9 7 6 7 8 5 2 4 1 4 9 14 17 19 20 20 20 19 19 21 22
9 11 14 20 20 13 7 3 2 4 3 4 6 4 1 1 2 1 0 1 0 1 2 0 2 3 2 2 1 4 3 1 2 2 1 1 0 2 3 1 1 2 3 2 0 1 3 3 2 3 2 3 1 1 3 3 4 3 4 6 5 2 2 0 5 5 6 8 8 9 12 12 9 4 1 0 7 13 16 19 21 20 20 20 20 22 25 25
3 4 9 19 21 14 7 3 4 5 4 6 7 4 1 1 1 1 1 1 1 2 1 1 1 1 1 1 1 4 5 3 3 3 1 1 1 1 3 2 1 1 3 3 2 1 2 4 1 2 3 1 2 2 2 3 4 4 4 3 3 1 1 2 3 5 7 8 8 11 14 12 9 6 3 5 11 15 17 20 21 20 20 20 22 26 27 26
2 1 4 17 20 13 7 3 4 4 5 5 4 3 1 1 0 1 2 1 2 2 0 0 0 0 2 1 1 2 3 3 3 2 1 2 2 1 2 2 0 2 3 2 2 2 1 3 1 1 3 3 2 1 2 2 4 3 4 2 2 1 3 4 3 4 7 9 10 12 13 9 5 4 5 8 13 16 18 18 18 19 21 22 24 25 24 24
2 2 2 16 18 9 9 13 10 6 6 4 1 2 1 1 2 2 2 2 2 1 0 2 2 1 1 1 1 1 1 2 1 2 1 2 1 2 3 3 3 4 4 1 1 2 1 1 3 3 5 4 0 3 4 2 3 2 3 4 3 1 2 3 2 2 3 7 9 11 12 9 5 3 3 8 15 17 16 16 18 19 23 26 26 24 23 23
2 2 3 18 17 3 8 16 11 4 4 4 2 2 1 2 2 2 2 1 2 1 0 2 1 0 1 1 1 1 1 1 0 1 1 1 2 2 3 3 3 4 3 1 0 2 1 2 4 6 7 4 3 3 2 1 5 4 4 3 2 3 2 4 3 1 1 4 6 9 13 11 4 1 2 11 18 16 14 17 19 22 26 27 25 25 25 24
4 3 5 16 12 9 10 8 4 2 3 2 2 2 0 1 2 1 1 1 1 1 0 1 1 1 1 0 0 1 1 0 0 0 0 0 3 3 3 2 1 2 2 1 1 1 2 2 2 5 6 3 5 2 0 6 11 8 4 2 1 1 1 4 6 4 2 5 6 9 13 10 0 4 5 17 19 14 14 19 22 24 27 26 25 28 27 26
3 2 7 15 5 7 11 6 1 4 4 1 1 1 0 0 2 1 1 1 1 1 0 1 1 1 1 0 0 1 2 1 0 0 0 0 2 3 2 1 1 2 1 1 1 0 1 2 2 5 4 2 5 2 1 5 7 6 5 3 2 1 0 2 3 3 5 7 8 9 12 10 1 1 12 21 20 14 15 21 25 24 24 25 28 30 28 27
1 2 6 16 7 4 4 4 2 2 2 2 1 1 1 1 1 0 1 1 0 0 1 1 1 0 1 1 0 1 1 1 1 0 1 0 1 3 2 0 1 1 1 0 0 1 1 1 3 6 5 2 1 1 1 2 1 2 3 3 2 2 1 0 1 1 5 7 7 10 12 12 10 14 20 23 20 17 19 24 26 24 24 26 27 28 27 27
2 2 2 16 19 10 4 1 3 4 3 3 2 1 1 1 1 1 1 0 1 0 1 2 1 1 1 1 1 0 0 1 0 1 1 1 1 2 2 0 1 1 0 1 3 3 1 1 3 5 5 6 6 5 5 5 5 2 3 3 3 3 2 1 2 4 7 9 10 10 12 17 22 25 26 24 19 19 24 28 27 25 25 28 27 26 27 26
2 3 1 7 14 10 3 1 2 4 4 4 3 1 0 1 1 0 0 0 2 1 1 1 0 1 1 1 1 1 0 1 1 1 1 1 1 1 1 0 1 1 2 2 2 2 0 1 3 2 3 6 8 10 10 9 6 6 3 3 2 1 1 2 4 5 9 13 12 11 13 22 29 29 28 24 19 21 27 30 29 27 27 28 27 27 27 26
1 3 1 0 3 3 3 2 2 2 2 2 1 1 1 1 1 1 1 0 1 1 1 1 1 1 1 1 1 1 0 0 1 1 1 1 1 0 1 2 2 2 3 1 1 1 1 1 1 1 7 10 11 14 14 9 7 9 8 1 3 2 1 2 5 8 11 11 12 15 20 24 27 28 28 24 21 24 29 29 28 28 28 27 27 29 30 28
2 2 1 1 1 1 2 2 2 3 4 2 1 1 1 1 1 1 1 0 1 0 1 1 1 2 2 2 2 2 2 1 1 1 1 0 2 1 1 2 2 1 1 0 1 1 1 1 1 1 7 11 13 13 10 6 5 7 7 3 3 3 3 4 8 11 10 10 14 22 27 26 24 26 25 24 26 29 29 28 28 29 29 29 29 31 30 27
2 3 0 2 2 2 1 3 2 3 4 3 2 1 1 1 1 1 0 0 1 1 1 0 2 3 1 1 1 2 3 2 1 1 1 2 2 1 1 1 1 0 1 1 2 1 1 0 1 1 7 10 10 7 3 4 7 5 4 3 1 1 3 5 10 13 13 14 18 23 28 25 20 20 22 24 28 28 25 25 27 30 30 31 32 31 29 29
1 3 2 2 4 3 2 2 1 1 2 2 1 1 1 1 1 1 1 1 0 1 0 1 2 2 2 1 0 1 2 2 3 3 2 2 1 1 1 0 0 1 2 2 2 2 2 2 2 1 5 6 3 3 4 6 6 3 5 4 2 5 6 7 10 12 13 16 20 23 24 20 14 16 24 27 27 26 25 27 28 28 29 31 31 30 30 32
4 5 5 5 4 2 2 1 0 0 1 1 1 1 1 1 2 1 1 1 1 0 1 0 1 2 2 1 1 1 3 3 3 2 2 1 1 1 1 1 1 2 2 3 2 3 3 2 1 1 4 4 2 8 13 7 3 4 4 2 3 6 8 8 8 10 12 17 22 21 16 13 13 19 27 29 29 30 29 28 27 26 28 30 28 26 28 32
7 5 3 5 4 2 2 1 1 1 1 1 1 2 1 1 1 0 1 1 2 1 0 1 2 2 1 1 1 1 2 1 1 2 1 1 3 4 3 4 4 3 1 1 1 1 1 1 1 2 4 6 7 14 14 3 5 2 2 1 5 10 13 13 11 12 15 14 14 14 12 14 19 24 29 31 32 32 29 26 26 27 26 26 24 24 28 30
Wind_Direction
91 93 96 99 95 87 83 72 60 53 52 53 50 43 37 36 42 56 55 54 56 54 50 38 30 15 5 356 29 93 73 57 57 49 48 24 358 356 351 350 347 342 343 347 358 10 76 71 42 101 145 109 18 35 83 35 2 251 217 257 277 312 357 17 352 354 324 317 335 340 352 324 314 338 340 298 231 258 287 284 270 257 247 262 288 313 316 315
100 100 103 102 93 86 82 67 60 58 55 50 42 32 24 23 29 49 51 49 49 38 31 22 13 359 349 338 2 128 108 59 56 49 32 5 359 357 350 350 346 338 340 348 0 360 5 46 30 119 161 135 18 112 159 15 333 274 178 273 347 36 32 23 353 349 322 319 323 321 336 300 308 333 340 331 320 311 323 340 340 323 313 316 327 329 329 330
105 105 108 101 91 86 78 67 66 63 51 41 30 18 11 9 17 42 42 40 37 25 20 11 3 351 346 341 297 159 171 60 47 33 8 357 354 354 350 349 348 343 339 347 351 347 2 28 37 145 144 97 30 52 130 7 336 261 267 291 55 31 27 72 343 339 335 323 315 314 316 289 309 333 332 328 321 343 8 1 348 335 336 344 348 347 347 349
109 110 108 95 89 85 74 69 68 57 43 30 19 10 5 6 16 37 39 34 26 18 15 4 1 359 6 353 287 171 196 224 39 357 348 354 348 348 348 347 350 353 346 344 347 8 44 42 44 51 92 93 59 58 72 15 344 172 330 10 68 337 293 71 1 352 350 320 306 304 299 310 350 360 328 335 339 3 7 356 349 340 344 355 3 9 15 19
111 110 101 89 89 81 73 70 64 49 34 20 12 8 7 13 27 40 39 29 20 15 9 4 6 17 43 21 346 175 196 226 19 339 344 347 341 343 345 350 356 356 346 347 4 14 53 73 76 53 65 84 70 93 58 21 339 132 71 47 80 303 346 28 1 16 356 309 296 301 324 341 355 40 360 3 14 11 358 357 6 11 13 18 25 28 32 34
106 100 92 90 87 74 73 67 56 37 21 12 7 7 12 22 35 43 44 28 20 15 9 6 6 32 70 54 67 134 167 74 346 335 342 336 334 341 345 2 8 7 358 14 31 31 45 39 140 80 80 84 47 83 62 353 283 223 100 101 84 4 1 7 354 17 348 319 343 328 339 335 357 55 22 23 33 22 12 16 28 42 41 39 41 40 38 38
100 96 95 90 77 72 74 61 42 21 9 6 4 8 21 27 38 51 42 23 17 15 13 9 10 31 105 73 69 76 81 58 344 338 337 330 333 340 358 17 17 27 38 43 28 54 51 37 96 100 102 103 62 93 89 300 285 318 96 96 69 25 5 1 342 357 317 335 350 318 312 344 24 64 21 35 40 30 28 35 48 55 50 47 47 43 41 40
102 101 96 77 74 77 73 49 20 5 0 1 3 15 28 28 41 46 31 20 18 19 17 17 20 26 167 102 63 66 57 8 344 342 334 332 343 359 27 28 28 38 47 45 27 68 65 42 95 190 95 84 116 95 59 234 69 36 70 70 73 71 10 358 320 356 5 262 326 303 13 40 47 100 49 44 38 26 39 49 56 57 52 50 47 44 43 42
106 98 82 70 79 76 63 28 360 360 359 1 12 27 31 27 34 30 22 20 19 19 17 29 37 41 92 145 125 61 25 346 343 341 336 345 15 40 41 37 36 41 47 45 34 42 79 56 86 221 98 81 109 71 343 285 61 37 50 47 81 94 4 353 341 13 33 158 354 350 55 62 98 167 58 47 26 20 51 56 55 56 53 49 47 45 43 42
99 84 73 73 87 75 42 358 356 0 3 12 25 33 31 23 26 27 22 19 20 17 15 41 51 52 57 61 84 59 2 342 348 346 348 9 37 52 47 46 40 39 50 46 35 31 23 55 79 89 94 91 86 63 332 344 50 14 65 117 83 143 360 4 9 13 12 133 15 5 55 67 127 150 57 42 14 29 56 57 54 55 54 50 48 46 43 43
89 77 78 86 93 54 359 356 3 7 14 27 30 24 18 14 16 15 11 13 20 16 19 43 54 54 54 49 63 55 355 349 357 1 13 32 46 50 48 49 43 38 48 49 40 37 37 57 112 129 75 113 122 102 41 17 235 299 135 151 75 180 273 19 19 3 351 122 21 357 116 97 73 50 46 20 2 43 57 57 55 55 54 50 48 46 43 41
85 80 90 91 76 11 1 4 8 15 24 26 17 8 2 1 357 354 3 18 22 15 20 40 29 37 51 51 59 39 2 3 5 19 33 41 46 46 51 55 51 50 60 64 48 45 55 54 109 95 38 172 167 97 86 46 242 319 18 134 71 178 200 23 18 346 338 25 6 332 179 80 63 53 32 351 9 57 58 57 56 54 52 48 47 45 42 38
86 87 94 77 32 8 8 6 14 22 21 19 19 19 8 348 331 339 5 18 16 19 26 40 40 55 50 58 59 21 13 10 13 32 38 38 51 46 50 56 58 62 73 81 71 59 64 52 78 92 64 109 98 66 137 144 197 311 349 27 48 179 70 37 20 337 338 9 346 323 166 74 70 55 27 359 30 62 58 56 55 55 52 47 45 43 41 36
88 88 76 49 24 13 10 11 20 24 34 49 44 37 20 350 323 304 10 23 7 13 29 43 63 85 63 85 79 12 12 16 20 25 23 28 51 49 50 63 70 67 74 83 77 70 71 64 86 101 70 42 84 154 181 79 51 289 284 5 18 21 10 39 39 355 10 36 338 330 68 89 71 42 25 14 47 68 62 58 56 55 53 47 44 41 39 36
90 87 63 44 29 20 21 22 32 51 71 69 55 39 24 7 320 214 248 3 11 16 38 55 60 94 78 87 49 3 10 19 19 14 10 19 32 35 56 73 80 72 70 73 75 70 63 60 74 75 56 58 148 162 173 73 52 8 360 12 15 8 344 5 67 27 18 341 337 343 11 88 62 35 23 28 65 76 68 63 59 55 52 46 44 39 36 34
99 85 63 47 37 32 30 35 57 84 91 75 60 43 30 30 123 150 53 340 20 34 55 55 27 64 82 42 350 360 11 12 8 8 10 20 24 26 61 74 87 85 68 55 62 60 44 53 72 47 47 50 25 283 175 55 43 32 27 12 359 347 336 340 105 62 10 322 350 13 38 57 49 33 25 39 70 79 72 67 61 54 51 46 43 39 35 31
103 79 60 49 45 43 38 48 77 102 106 82 59 49 44 47 68 136 68 62 54 51 55 36 13 87 76 18 353 357 356 350 357 8 15 24 32 41 65 71 61 22 16 35 43 29 14 31 95 77 45 32 11 303 59 34 19 23 20 7 344 317 320 333 350 36 2 345 355 9 65 65 49 36 33 39 64 76 72 64 60 54 49 45 41 38 34 29
92 72 57 57 54 48 44 57 94 126 156 12 18 43 55 56 64 72 70 77 72 45 44 19 8 125 62 13 356 328 321 333 358 9 13 19 36 45 48 38 311 298 283 25 31 12 358 12 77 74 40 23 17 16 48 43 7 5 2 354 338 315 299 315 330 10 0 341 339 359 66 72 58 48 42 38 52 69 70 61 57 52 45 42 39 34 31 27
80 66 58 63 60 51 50 57 51 314 281 275 318 338 50 61 63 61 55 59 63 36 38 0 1 117 26 351 328 320 311 319 2 11 10 9 9 34 35 22 3 360 8 37 20 8 352 24 42 38 20 9 14 18 28 29 347 344 340 322 308 310 300 300 318 25 1 325 335 19 50 72 59 47 40 35 48 63 66 60 53 48 43 38 34 31 27 24
70 63 67 72 68 59 55 52 31 9 337 278 255 329 129 110 57 49 39 48 63 42 56 5 1 82 22 334 329 341 333 289 12 15 8 4 342 3 17 354 15 55 40 11 11 358 344 50 47 20 355 344 352 359 351 343 320 301 291 292 284 286 300 310 327 62 8 331 343 45 57 75 62 44 41 33 47 58 57 54 51 45 41 34 30 28 24 22
67 69 86 85 77 69 65 57 40 38 41 64 126 92 107 196 69 99 27 50 65 28 58 61 5 42 351 323 340 349 339 249 16 13 8 7 336 338 359 346 41 55 27 287 303 305 33 53 42 357 336 325 344 350 318 315 262 263 285 306 300 289 298 307 320 101 24 352 66 101 66 82 72 53 52 46 52 56 50 51 50 44 40 33 28 23 18 17
74 81 101 96 87 82 76 61 45 49 60 75 89 86 100 122 109 132 153 99 67 15 57 68 51 47 321 336 357 345 311 360 9 8 6 5 9 20 353 17 60 56 4 300 267 31 58 52 23 351 344 275 4 3 312 189 212 249 296 317 313 333 311 291 279 132 75 331 330 84 40 93 92 75 65 59 61 63 57 56 51 41 38 29 24 19 11 9
75 85 109 107 97 91 84 60 43 51 64 73 82 89 110 112 119 132 109 103 90 3 22 41 57 33 3 39 2 347 24 34 359 359 359 357 20 37 358 36 61 57 20 26 45 60 62 42 21 9 237 217 240 3 347 223 206 242 311 333 318 335 332 290 103 347 295 286 273 286 274 132 122 109 88 74 71 76 66 62 56 43 37 28 22 17 10 6
75 90 116 117 102 96 92 60 40 51 64 75 83 91 115 117 128 132 93 111 96 64 38 41 91 34 25 15 350 350 71 54 345 349 357 3 24 338 17 42 48 59 36 24 59 80 76 50 25 224 239 297 266 355 16 331 353 228 255 329 315 321 319 287 301 312 297 242 236 278 263 168 169 165 117 112 98 79 65 56 52 42 35 26 18 15 11 7
83 102 123 123 106 95 96 54 34 46 69 79 83 91 100 92 127 149 148 121 48 53 51 93 116 30 10 342 351 352 143 69 52 350 355 13 11 291 84 46 346 48 43 340 62 85 69 72 259 277 328 349 332 36 19 337 331 330 202 306 303 310 304 290 302 310 308 35 115 310 307 279 166 175 148 144 124 74 59 46 38 30 25 17 13 9 4 1
96 118 132 129 110 53 47 51 25 31 75 77 73 100 95 64 95 132 166 97 50 7 353 1 5 7 359 343 346 320 184 35 37 14 11 18 9 217 98 12 6 54 88 278 67 93 59 125 226 321 276 347 43 60 30 297 312 352 13 309 299 305 294 294 312 309 323 334 323 338 308 309 175 178 170 153 117 71 48 36 27 19 15 9 7 3 356 354
111 129 144 127 87 24 28 103 19 22 70 54 4 73 135 92 103 120 238 46 47 356 351 357 338 352 359 348 339 319 120 330 325 33 18 8 357 234 49 23 64 53 34 234 57 66 14 332 356 349 317 12 28 11 18 253 302 349 14 324 310 303 289 294 306 278 313 323 285 150 289 300 296 183 161 171 154 77 40 21 15 7 4 1 360 357 352 349
128 139 147 120 82 49 59 77 32 48 63 17 2 58 166 175 135 193 250 69 20 341 11 351 337 351 350 346 360 59 114 314 334 16 356 3 11 334 69 49 91 61 327 238 66 71 352 355 10 349 352 19 7 334 319 228 291 340 345 318 301 290 285 285 286 274 266 313 315 92 58 305 308 333 147 189 221 57 21 6 358 351 351 352 353 350 347 344
132 140 138 124 101 60 61 54 52 79 72 55 60 73 124 140 174 229 77 97 334 351 76 334 347 354 336 334 17 47 21 354 39 339 335 9 22 21 79 63 124 127 311 350 68 89 253 24 9 326 3 1 326 318 256 207 291 322 305 288 249 219 255 253 270 277 233 276 355 44 32 325 306 303 205 198 213 4 356 355 355 349 344 344 345 343 342 339
136 143 142 126 131 62 36 41 55 79 77 73 73 60 82 111 197 102 53 53 338 354 330 356 355 323 332 353 31 22 13 25 2 321 338 26 11 31 93 250 183 124 23 55 77 92 197 65 191 262 356 326 307 303 213 213 276 302 299 297 273 199 221 204 218 286 293 315 6 42 24 326 299 295 305 129 119 46 343 344 348 347 342 338 335 333 335 335
136 138 145 127 126 342 343 36 57 80 77 67 55 31 71 41 50 88 66 27 343 349 344 18 6 335 0 23 28 4 7 11 345 352 15 8 0 29 54 335 330 111 36 54 49 40 181 176 152 215 319 309 292 272 183 216 260 290 329 341 346 316 284 281 303 355 340 320 351 63 14 295 279 291 86 101 109 141 316 335 339 339 334 330 329 328 331 333
104 89 72 50 59 15 30 101 92 78 58 26 32 20 158 53 34 66 25 302 315 360 19 5 347 3 359 7 21 356 344 360 3 14 13 4 23 31 35 20 343 310 34 30 352 349 179 173 32 157 154 336 307 302 148 187 280 346 4 3 2 351 348 348 343 351 321 303 317 80 358 293 275 317 105 129 134 183 278 311 319 319 318 326 332 328 328 333
76 57 42 43 49 45 70 118 132 87 23 2 64 51 79 77 48 40 280 319 9 11 18 309 312 328 310 322 21 353 325 355 352 12 9 341 45 56 81 49 4 298 6 8 336 345 106 134 25 5 126 161 308 348 22 4 5 16 10 9 13 360 343 333 338 337 308 305 314 349 353 305 297 349 135 154 146 241 269 276 293 307 318 328 332 330 332 333
80 69 59 53 51 57 78 116 129 113 51 40 113 55 61 72 74 209 277 328 15 350 344 311 303 304 341 44 9 316 301 66 352 358 1 353 42 31 54 44 26 354 290 317 11 354 336 88 34 21 19 347 357 23 12 337 14 41 19 9 19 9 328 313 327 324 305 305 307 308 320 315 319 355 146 155 172 291 296 298 314 328 334 335 336 337 336 332
84 70 61 52 43 42 62 102 124 160 118 66 66 59 71 88 237 209 326 328 336 330 319 279 302 311 64 60 53 285 271 66 32 15 16 26 41 12 353 360 9 6 308 330 41 305 278 253 44 25 340 349 15 31 290 304 36 85 187 1 8 347 289 285 293 287 286 292 297 296 280 295 316 106 120 129 253 302 329 335 336 340 344 344 340 336 332 328
76 61 50 39 31 31 44 61 89 155 152 88 68 57 76 117 308 135 42 331 332 325 304 277 338 11 24 322 27 51 255 258 12 7 45 47 56 17 353 318 354 360 343 352 14 331 308 292 43 21 42 55 27 349 333 343 339 8 354 358 357 314 254 290 294 277 276 284 289 295 291 300 314 115 123 191 300 334 344 344 343 343 345 342 335 331 328 326
64 60 46 27 18 16 21 40 114 134 117 71 79 79 55 75 35 34 64 337 273 281 293 298 18 357 338 292 329 345 317 293 349 342 51 59 141 36 346 309 24 350 336 332 231 24 310 301 19 21 4 54 38 311 87 38 328 358 13 346 330 241 179 357 298 294 299 289 290 303 303 306 313 309 164 204 342 346 345 344 343 341 340 336 330 328 326 325
29 76 50 17 7 2 5 46 97 111 97 61 79 103 61 48 31 257 169 161 226 235 292 86 59 285 250 252 310 326 325 347 360 4 56 344 42 57 333 338 109 30 350 313 300 62 287 291 55 104 325 2 162 213 107 78 20 54 74 346 330 292 291 323 305 303 307 297 292 301 302 300 300 307 333 349 345 344 344 345 341 335 334 332 329 327 324 323
351 123 45 4 0 2 6 54 72 56 77 70 76 103 77 80 166 234 196 205 221 212 64 104 274 240 204 251 331 319 330 3 1 354 60 359 6 72 9 357 41 34 18 317 314 33 245 293 19 143 309 307 171 305 338 59 53 85 111 62 20 305 285 307 314 292 296 299 297 305 305 298 300 325 339 343 344 344 347 346 336 330 331 330 328 325 323 323
5 127 24 356 358 9 44 65 61 35 61 76 87 102 89 181 187 220 224 237 229 224 85 179 200 209 191 281 337 318 347 18 337 332 21 9 348 77 59 22 342 354 358 313 315 346 236 263 299 310 320 300 315 34 355 19 59 45 37 37 26 344 272 272 260 229 302 304 304 312 304 292 310 353 353 345 343 347 353 345 332 328 330 329 325 322 322 323
32 110 349 350 355 11 63 60 53 28 69 79 97 108 102 194 179 195 208 236 256 268 315 169 168 87 138 36 9 211 286 337 264 330 6 29 18 42 59 39 352 335 324 268 155 344 302 231 282 311 324 327 36 39 318 49 77 50 13 23 25 360 331 303 304 85 73 287 290 301 294 292 308 108 18 344 340 346 356 344 332 328 328 325 322 320 322 323
50 92 333 347 17 80 71 58 30 22 84 72 59 103 104 193 177 185 163 194 258 264 64 104 61 58 167 71 71 186 220 255 126 30 293 35 30 28 51 57 359 298 299 272 120 344 296 249 263 288 300 353 56 50 299 97 94 82 54 70 118 57 21 316 313 325 316 278 283 290 286 290 9 139 339 339 338 346 354 341 331 327 324 323 322 324 324 323
67 107 355 352 16 103 68 68 8 26 71 128 319 77 350 191 164 161 172 197 254 227 168 88 79 94 169 210 182 196 206 208 210 30 231 231 45 60 85 77 268 252 254 193 168 238 265 261 290 285 276 112 103 89 79 112 109 93 70 74 108 116 35 303 300 326 312 288 300 309 290 284 297 319 326 334 336 342 346 337 330 326 323 324 325 327 327 325
73 151 12 10 17 169 83 82 131 67 97 168 157 109 306 254 152 112 239 260 350 223 131 76 67 98 101 127 191 206 197 204 232 60 88 196 72 86 99 35 297 276 319 357 315 346 330 303 332 328 332 13 86 344 296 249 265 64 80 84 82 83 77 199 177 315 294 284 306 312 289 284 305 316 321 329 334 336 336 333 329 325 324 327 327 326 327 326
65 122 338 17 37 68 91 87 133 129 143 149 115 66 3 95 84 11 300 52 59 321 29 73 65 55 108 142 193 175 64 340 273 135 116 164 124 107 111 357 309 266 309 305 296 309 322 354 1 359 350 336 321 314 315 316 322 353 105 103 63 66 86 319 309 300 298 306 307 292 282 294 307 313 318 327 336 335 331 330 329 325 325 327 327 325 326 327
70 55 320 6 31 53 77 2 68 116 148 145 107 56 28 94 69 49 217 102 101 93 25 65 47 9 102 164 252 215 101 22 36 98 138 154 98 101 140 184 189 246 288 299 292 301 142 109 20 5 278 283 291 290 304 323 313 297 324 94 110 87 71 333 319 302 304 309 299 280 288 301 307 313 318 326 336 334 329 330 329 326 325 326 325 323 325 326
95 75 49 332 28 44 66 38 22 74 135 143 99 100 138 67 23 130 178 253 100 106 10 71 42 351 15 6 322 276 290 64 93 75 58 358 318 290 224 213 206 269 293 292 263 295 215 194 53 349 254 262 278 284 295 310 299 298 312 315 152 143 119 315 304 302 310 308 296 299 307 307 307 313 320 326 333 332 330 330 328 324 324 324 323 322 323 325
60 134 238 292 89 93 55 42 37 59 63 60 74 80 78 58 27 99 159 185 114 141 254 125 53 28 23 340 323 328 335 3 138 161 98 332 295 308 163 207 228 291 297 79 36 330 296 229 106 293 262 268 279 282 286 289 283 292 292 252 164 156 190 275 297 304 309 296 291 303 309 308 307 313 321 328 330 330 329 327 324 321 321 323 324 322 322 325
56 115 115 346 67 113 22 19 43 66 63 65 87 86 83 124 118 80 242 212 105 118 219 315 21 36 69 303 329 358 340 339 319 277 165 161 267 267 150 209 201 142 182 61 31 342 271 255 126 263 283 285 283 271 249 279 291 286 244 209 152 253 264 292 301 306 304 291 292 304 306 306 309 317 321 324 325 326 326 325 322 320 322 326 326 324 323 325
172 144 135 59 82 84 25 11 17 68 65 52 70 80 103 160 145 110 188 233 87 89 84 4 24 55 88 110 49 14 329 285 276 273 195 166 254 231 154 348 71 60 47 55 16 307 329 6 89 133 284 285 276 272 291 302 302 267 176 169 312 318 321 318 305 306 307 300 304 310 306 304 314 323 319 319 323 325 325 327 325 321 324 328 327 326 326 326
95 119 137 114 85 11 1 50 348 64 70 19 71 132 175 176 153 143 172 219 236 278 353 20 119 118 101 110 194 302 327 295 276 271 184 189 323 29 52 17 358 340 19 55 340 326 8 13 79 98 293 287 6 328 320 336 84 146 164 181 317 332 334 323 306 301 302 303 309 313 309 307 321 325 320 320 324 327 328 329 324 320 322 325 326 327 326 324
99 97 116 101 82 345 349 49 319 82 84 24 83 130 169 109 112 183 149 181 226 231 355 152 151 156 140 123 160 294 352 24 89 59 70 95 70 66 57 62 65 31 24 108 358 344 36 346 356 16 310 310 343 330 317 332 117 129 134 92 356 349 337 324 317 312 306 303 308 313 314 316 323 326 324 324 326 327 329 328 321 316 319 323 327 328 325 322
Height
818 818 818 818 818 818 818 818 818 817 817 817 817 816 816 816 815 815 815 814 814 813 813 812 811 811 810 810 809 809 808 807 806 805 806 809 810 808 807 805 803 802 801 800 798 797 797 796 796 796 795 797 800 801 803 805 805 804 805 809 810 810 812 812 812 814 815 811 809 810 814 815 809 807 808 807 807 807 804 802 800 800 800 799 797 797 796 795
818 818 818 819 818 818 818 818 818 818 818 817 817 817 816 816 816 815 815 814 814 813 813 812 811 811 809 809 809 808 808 807 805 806 808 811 810 808 806 805 803 801 801 799 798 798 796 796 796 796 795 798 802 802 803 806 806 806 808 809 809 811 814 815 815 815 815 814 813 811 815 816 812 811 811 808 805 804 802 800 799 799 798 798 799 798 796 795
818 818 819 818 818 818 818 818 818 818 818 818 817 817 816 816 816 815 815 815 814 813 812 812 811 810 808 808 807 807 807 806 805 808 810 811 809 807 806 804 803 801 800 799 798 798 797 797 796 796 796 799 804 803 804 807 808 809 809 808 811 816 816 818 818 817 818 819 816 812 816 817 814 814 813 812 807 802 804 805 805 802 800 801 801 799 798 796
818 818 819 818 819 819 819 818 819 819 818 818 818 817 817 816 816 815 815 815 814 813 812 812 810 808 808 806 806 806 806 805 808 812 811 810 809 807 805 804 802 801 800 799 799 798 798 797 797 797 798 802 806 805 807 811 810 810 811 810 816 819 815 817 819 820 822 823 820 815 816 815 814 817 816 813 808 805 810 813 813 811 807 806 804 802 800 797
818 819 819 818 819 819 819 819 819 819 819 818 818 817 817 816 815 815 815 815 814 813 812 811 810 809 808 805 804 805 805 810 813 813 811 810 808 807 805 804 802 801 800 799 799 798 798 798 798 798 799 803 806 806 810 814 813 812 816 818 819 819 815 816 820 824 827 824 822 817 815 815 815 818 818 815 815 816 818 818 817 815 813 811 808 806 802 800
819 819 819 819 819 819 819 820 819 819 819 818 818 817 816 816 816 815 815 814 814 813 812 811 810 809 808 806 805 804 807 815 816 812 812 810 808 807 805 804 803 801 800 799 799 798 798 797 798 801 802 806 809 810 813 816 814 811 817 822 821 821 819 819 822 826 829 824 821 818 817 819 816 818 821 818 820 823 822 820 819 817 816 814 811 808 806 805
819 819 819 819 819 819 820 820 820 819 819 819 818 817 817 816 816 815 815 814 814 813 812 811 810 809 808 806 806 805 808 816 816 813 812 809 808 807 805 805 803 802 801 800 800 798 799 798 799 803 804 808 813 813 816 816 814 810 815 821 823 825 823 823 825 827 829 825 822 820 819 819 816 819 822 820 822 823 822 820 819 818 818 815 812 811 811 811
819 819 820 820 820 820 820 820 820 820 819 819 818 817 817 816 816 816 815 814 814 813 812 811 810 808 807 807 806 806 811 816 816 813 811 808 807 807 806 805 804 803 801 800 801 799 800 801 802 805 805 810 812 814 818 816 813 813 818 822 824 827 824 824 825 824 826 824 821 818 816 817 819 820 819 821 823 821 821 820 819 820 818 816 815 816 816 815
820 820 820 820 820 821 820 820 820 820 819 819 818 817 817 816 816 816 815 815 814 813 813 812 810 808 807 807 805 808 817 818 816 813 810 808 807 807 806 806 805 804 802 802 802 800 801 804 805 804 806 813 813 815 819 814 815 819 822 824 823 825 825 823 822 820 823 822 819 815 811 816 821 819 818 821 823 821 821 820 820 820 818 818 819 820 819 818
820 820 821 821 821 821 821 820 820 820 819 818 818 817 817 817 816 816 815 815 814 814 813 812 812 809 808 807 805 813 821 819 816 814 810 809 808 808 807 806 806 804 804 804 803 802 803 804 806 804 805 812 816 818 820 817 820 823 824 826 825 826 825 822 819 818 820 821 820 817 813 816 818 817 818 822 823 822 821 821 821 820 820 823 823 823 823 821
821 821 821 821 821 821 821 821 820 820 819 819 818 818 817 816 816 816 815 815 814 814 813 813 812 810 810 808 809 819 822 818 817 814 811 810 808 808 808 807 807 805 805 805 805 806 806 806 807 806 806 812 816 819 822 822 823 824 826 825 824 827 824 819 819 819 819 818 821 821 816 815 815 817 823 825 823 822 822 823 823 823 824 827 827 826 826 825
821 821 821 821 821 821 821 821 820 820 819 819 818 818 817 816 816 815 815 815 814 814 813 813 812 812 811 810 814 821 821 819 818 814 812 811 810 810 809 809 808 807 807 806 808 808 808 808 806 807 811 813 816 819 822 826 826 824 822 818 818 824 821 819 821 820 818 816 820 821 815 814 817 823 828 826 824 824 824 825 825 827 829 830 830 830 830 830
822 822 822 822 822 822 821 821 820 820 819 819 818 817 817 816 815 815 815 815 815 814 814 813 813 812 811 814 820 822 820 819 817 814 813 811 811 811 810 810 809 809 808 808 810 810 809 809 807 810 814 814 817 821 822 825 826 823 822 818 816 816 814 819 824 819 815 816 819 817 810 813 821 827 830 827 825 825 825 828 829 830 832 833 833 833 833 834
822 822 822 822 822 822 821 821 820 820 819 819 818 817 817 816 815 815 815 815 815 814 814 813 813 812 813 818 821 820 820 819 816 814 813 812 812 812 811 811 810 811 810 810 811 811 811 811 809 810 815 818 822 824 822 822 822 820 822 822 819 815 810 818 828 821 814 817 816 811 807 812 823 828 830 829 826 826 829 832 833 834 835 835 836 835 836 836
822 822 823 822 822 822 821 821 820 820 819 819 818 818 817 815 815 815 815 816 815 815 814 813 813 812 815 819 821 821 820 817 816 815 814 814 813 813 813 812 812 812 812 812 812 812 813 811 811 813 819 822 822 821 818 818 820 819 820 820 823 823 815 817 830 828 822 821 816 809 806 809 824 834 833 832 828 828 833 836 836 837 837 837 837 838 837 838
823 823 822 822 822 822 822 821 820 820 820 819 819 819 817 815 815 815 816 816 815 815 813 814 814 812 817 823 822 821 820 819 819 819 817 816 814 814 814 814 814 813 813 814 813 813 812 812 817 820 821 822 824 822 814 814 818 820 823 825 829 832 824 816 825 832 829 824 818 813 812 815 828 839 838 835 832 831 834 838 839 839 839 839 839 839 839 838
823 823 823 823 822 822 822 821 821 820 820 820 819 820 818 816 815 815 816 816 816 816 814 816 815 813 819 825 824 824 824 824 822 820 818 817 817 816 816 816 815 814 814 813 813 814 813 816 821 823 822 824 827 821 814 821 826 826 829 829 831 836 831 820 819 828 828 824 822 817 819 830 840 844 843 840 836 834 837 840 841 842 842 842 841 841 840 839
823 823 823 823 822 822 821 821 821 820 820 820 819 820 819 818 817 816 817 816 816 815 815 817 815 818 826 827 829 830 828 826 824 822 820 818 818 817 817 816 815 814 813 813 815 816 816 818 819 821 826 830 834 827 823 835 839 836 838 835 835 835 830 825 821 828 831 826 822 817 822 838 845 846 847 846 842 838 841 844 844 844 844 844 843 842 842 841
823 823 823 823 822 822 821 821 821 820 820 819 819 820 819 820 818 818 819 817 819 822 826 828 825 831 837 833 833 832 828 827 825 823 821 820 819 818 818 817 816 815 815 817 820 823 822 821 823 829 837 843 850 848 843 847 848 846 848 846 845 840 830 825 825 834 839 829 822 822 829 840 847 849 850 850 847 844 845 847 846 846 847 846 845 844 843 842
823 823 823 823 822 822 822 821 821 820 819 819 819 819 820 821 823 826 827 825 830 836 838 838 836 837 838 836 834 831 828 827 826 824 822 820 819 819 819 819 817 817 825 831 829 829 828 829 840 849 853 856 859 861 861 861 859 854 852 849 846 842 832 823 826 839 842 830 825 828 834 843 851 852 853 852 850 848 848 848 848 848 848 848 847 845 845 843
823 823 823 823 823 823 822 822 821 820 819 819 818 820 823 824 826 831 834 835 839 840 839 840 839 838 838 838 836 833 831 828 825 825 823 822 819 819 822 822 820 824 837 844 838 830 829 837 853 860 862 865 866 867 867 865 864 858 851 846 839 837 833 825 829 841 842 833 828 828 832 845 855 854 855 855 852 852 852 851 851 850 850 849 848 847 845 844
823 823 823 823 823 823 823 823 822 821 820 819 819 821 825 825 825 828 829 835 841 840 840 840 840 839 839 839 837 836 834 830 827 826 826 824 819 822 828 828 829 835 840 840 835 831 835 847 859 866 869 871 870 869 868 864 863 857 847 842 836 833 833 827 830 841 842 834 827 826 830 843 855 856 856 857 855 856 855 853 853 851 851 849 848 848 845 844
823 824 824 824 824 823 823 823 823 822 821 820 821 823 826 826 827 827 826 832 839 841 841 840 840 841 839 838 839 836 834 837 838 834 832 828 827 832 834 834 837 841 840 836 834 835 843 853 863 872 873 869 864 864 865 860 854 851 845 842 838 836 838 832 829 836 838 836 833 829 831 844 855 854 856 858 856 857 855 853 853 851 851 850 848 848 846 844
824 824 824 824 824 824 824 824 823 823 822 823 824 825 827 827 827 827 828 834 840 841 841 841 841 841 842 841 841 839 837 843 845 842 839 836 836 838 840 844 843 843 850 849 843 844 852 861 870 873 869 863 858 855 858 851 842 845 847 846 842 841 845 839 834 834 830 836 843 833 823 833 845 846 849 855 854 854 854 852 852 851 850 850 848 847 846 844
824 824 824 824 824 824 824 824 824 824 825 825 826 827 827 827 827 827 829 836 841 841 841 842 842 842 844 843 841 842 841 843 847 847 844 842 842 841 845 852 846 845 856 857 849 848 855 868 872 866 861 860 854 851 859 856 841 840 847 849 847 847 848 843 842 836 820 820 835 831 814 814 831 841 846 851 851 851 852 851 850 850 849 848 847 846 845 843
824 824 824 824 824 824 824 824 825 825 826 826 828 828 827 827 828 827 829 836 843 846 844 841 843 844 845 844 843 843 841 843 848 849 846 845 846 844 845 852 851 852 861 859 853 853 858 868 868 861 859 857 851 851 862 863 847 838 846 853 853 855 851 846 846 837 818 815 828 832 820 812 821 834 843 848 849 850 850 850 850 849 849 848 847 846 844 843
824 824 825 824 825 825 824 825 825 826 826 828 828 827 828 828 827 827 830 840 851 853 851 846 847 848 848 849 846 842 846 849 848 848 849 848 847 845 844 850 853 858 867 862 852 855 860 862 862 859 854 850 850 852 859 866 854 840 848 856 855 853 848 848 848 836 828 827 825 825 823 815 810 821 842 848 844 849 851 851 851 850 850 848 847 847 844 843
824 825 825 825 826 825 825 826 826 827 827 828 828 827 828 827 828 828 832 851 864 858 856 855 851 851 852 853 849 849 857 858 851 850 851 849 848 845 845 854 856 858 867 860 848 857 864 860 860 860 852 849 853 856 861 868 856 842 850 857 857 856 850 850 845 832 839 838 818 815 822 820 809 815 845 851 840 846 852 852 852 849 850 848 846 846 843 841
825 825 825 826 826 826 826 826 826 827 827 828 827 828 828 826 829 829 834 858 869 859 860 859 852 857 859 855 855 858 861 861 860 858 853 852 851 847 851 859 860 858 862 855 849 859 865 865 869 864 857 855 856 859 864 866 854 847 854 855 857 860 853 851 842 829 838 832 814 817 822 825 817 808 825 837 836 848 853 850 850 848 848 846 845 844 841 839
825 826 826 826 826 826 826 826 827 827 827 828 828 828 828 828 830 834 847 867 870 865 867 863 863 871 868 859 858 864 865 865 869 864 856 857 853 851 859 863 860 856 856 853 852 860 867 871 874 868 863 862 861 862 866 866 858 854 852 842 842 846 841 843 837 825 828 819 816 827 824 831 832 810 812 833 844 856 857 851 849 847 846 845 843 843 840 838
826 826 826 826 826 827 826 827 828 827 828 828 828 828 828 830 835 846 865 875 871 871 871 870 877 880 877 872 869 871 870 868 872 868 861 861 858 854 858 861 860 854 849 851 851 855 863 865 865 868 869 867 863 860 864 869 863 855 846 835 832 831 827 828 824 823 831 823 823 834 832 837 837 817 824 847 855 859 858 853 850 847 845 843 842 841 839 838
826 827 827 826 827 827 826 827 828 828 828 827 828 828 828 836 850 867 878 874 871 878 880 881 885 884 883 882 879 881 879 872 874 876 875 872 870 873 873 875 875 861 851 857 857 852 854 856 859 867 869 868 862 852 854 860 855 849 845 841 843 840 838 838 830 832 838 828 825 836 842 840 826 820 839 853 854 855 854 852 850 847 844 842 841 841 839 837
828 827 827 827 827 827 827 828 828 828 828 827 828 828 830 843 867 886 886 874 877 888 891 892 890 888 886 878 879 887 884 879 877 878 881 877 875 883 886 888 888 875 862 864 864 856 850 852 857 861 863 868 864 851 849 853 852 853 852 852 857 861 866 865 850 846 844 829 824 832 842 837 817 823 847 850 848 851 849 849 847 845 844 842 841 840 838 835
828 828 828 828 827 827 827 827 828 828 828 827 827 828 836 856 880 891 886 882 889 894 895 897 892 886 883 879 886 891 880 880 883 878 876 873 873 879 882 884 887 885 877 869 872 873 860 854 855 855 859 864 864 863 863 860 858 862 860 857 861 868 877 875 862 860 856 841 833 834 838 833 819 829 846 846 847 849 845 846 844 842 842 841 839 837 834 833
829 829 828 827 827 828 827 827 827 827 827 827 830 837 851 872 887 888 887 891 895 894 895 898 890 878 877 882 891 894 883 879 884 883 879 878 880 882 885 887 887 891 885 871 878 883 866 856 858 862 867 866 865 872 874 865 860 863 862 860 865 870 872 870 862 862 865 860 849 838 831 823 823 837 848 847 848 846 843 842 841 840 840 839 837 835 833 830
829 829 828 828 829 828 828 828 827 827 828 826 835 855 872 883 889 889 894 897 897 898 894 889 884 876 873 878 883 888 888 883 882 881 882 888 890 889 892 894 894 898 891 879 883 883 865 856 860 865 867 870 873 874 873 869 859 858 863 865 872 875 872 872 867 860 867 868 849 834 829 821 824 840 849 849 846 841 841 841 840 840 839 839 838 835 832 827
829 829 830 831 831 830 830 829 827 827 828 827 842 872 889 894 897 898 902 902 903 906 893 879 883 885 881 879 876 880 884 882 882 878 878 887 889 891 896 897 898 901 898 892 889 890 882 865 860 865 863 869 882 877 872 877 868 860 869 873 873 875 873 877 882 873 871 868 846 834 839 835 832 837 842 845 844 841 841 841 840 841 841 841 839 834 830 826
830 830 831 832 832 832 830 828 829 828 827 839 864 887 895 897 902 903 905 905 905 903 888 878 886 892 890 883 877 885 886 878 879 880 880 882 884 892 898 896 899 902 905 902 890 892 896 872 859 870 867 867 879 873 865 874 875 868 874 877 876 880 878 877 885 884 880 878 860 846 847 843 836 834 837 842 843 843 843 842 842 844 843 842 838 832 829 823
831 830 833 836 834 833 832 829 832 828 828 853 881 891 894 898 904 905 905 905 903 896 885 883 889 891 892 889 884 892 895 885 883 884 882 882 884 894 901 899 900 902 905 906 894 894 898 880 864 865 865 863 864 862 861 867 874 873 874 880 882 885 885 883 886 886 883 884 875 863 857 845 833 833 841 845 845 844 845 845 846 846 844 841 836 831 826 821
831 831 836 838 834 835 835 829 831 836 847 873 890 892 896 899 901 906 907 904 901 893 885 886 891 887 889 896 894 897 900 896 893 887 883 887 888 893 906 910 907 906 906 906 901 898 895 887 874 860 856 859 859 866 871 869 873 876 877 886 891 887 886 888 889 888 887 888 884 881 871 846 831 838 844 845 844 846 849 850 848 846 843 840 834 829 824 820
831 833 838 838 835 836 833 833 850 865 874 886 892 894 898 897 897 902 906 907 902 897 893 891 891 888 889 893 896 899 900 897 897 891 887 891 888 889 909 922 919 916 908 897 897 900 893 887 883 870 858 856 864 881 886 877 876 880 882 890 896 896 895 894 890 890 896 896 890 893 884 850 834 841 844 842 844 847 852 853 849 845 841 837 831 827 823 819
832 838 842 839 837 835 833 849 877 885 883 888 892 894 897 896 895 897 902 906 902 897 898 895 894 896 894 892 894 901 900 892 893 892 889 893 892 895 915 928 927 923 911 896 897 905 899 891 889 877 863 865 881 893 890 884 883 886 891 895 897 901 903 900 895 894 902 899 888 892 885 852 836 841 842 842 846 850 854 854 850 845 839 835 830 825 821 817
838 843 843 839 838 836 838 860 885 889 890 897 899 898 899 897 894 896 899 900 897 895 895 894 896 897 896 897 897 898 896 892 891 892 891 894 901 910 922 927 924 920 911 899 898 905 901 894 888 873 859 870 892 897 892 890 888 889 898 904 904 907 907 908 909 910 910 899 887 892 883 850 836 841 841 843 849 853 855 854 850 845 838 833 829 823 818 815
843 844 843 841 836 833 841 860 879 889 895 898 895 895 898 898 895 895 895 895 896 896 891 892 898 897 898 904 901 897 895 891 890 894 896 895 905 920 928 925 920 915 907 901 902 903 895 886 884 878 869 871 880 884 884 884 883 888 902 911 913 914 915 917 920 921 912 894 889 902 889 852 835 839 843 846 852 854 855 853 850 845 837 831 827 821 817 813
842 844 846 844 839 839 854 868 874 881 889 889 887 892 894 895 897 898 897 897 903 902 894 894 901 901 902 906 901 899 901 894 890 896 900 898 905 920 926 924 921 916 912 915 916 909 897 888 886 889 891 888 881 878 876 876 880 888 901 914 917 918 919 915 914 917 910 895 895 904 890 856 840 842 845 848 853 856 856 851 847 843 838 831 825 820 815 811
840 845 850 851 850 854 869 880 874 872 881 880 881 892 894 889 895 902 901 897 902 905 900 900 903 900 899 900 895 893 898 900 898 895 896 897 902 914 922 923 922 919 916 920 921 913 902 896 892 893 896 892 885 882 878 880 888 889 895 910 918 922 922 915 912 915 909 902 899 895 886 868 852 848 847 848 855 858 855 850 845 840 835 830 825 819 813 809
843 855 862 859 859 862 870 880 878 874 878 876 878 891 893 889 893 898 899 898 902 904 901 901 902 896 892 895 892 889 893 900 900 895 899 904 905 911 919 921 919 919 918 919 921 913 897 891 897 901 899 891 886 885 884 889 895 892 895 908 916 921 922 918 918 914 910 913 902 883 881 878 863 853 851 850 855 857 853 849 845 838 833 829 824 818 812 808
849 863 873 865 862 867 870 876 883 883 882 884 891 896 892 890 892 892 895 900 902 902 897 894 898 898 899 901 894 888 890 893 893 897 904 909 908 906 909 912 913 917 918 916 917 913 896 891 903 908 903 897 893 891 891 894 897 896 900 907 912 920 923 920 918 913 912 917 904 882 880 881 868 858 855 854 855 854 852 850 845 838 832 827 822 816 811 806
856 862 874 872 870 880 885 887 889 886 884 887 894 896 891 888 890 896 901 898 894 899 897 888 892 900 906 907 899 891 893 890 889 898 904 907 908 905 902 903 908 914 915 910 915 918 904 894 906 916 910 900 893 894 897 898 898 901 906 908 909 914 917 916 913 909 908 907 898 887 883 877 868 863 860 859 857 854 853 851 845 837 830 825 820 814 807 803
851 853 864 870 876 889 895 894 889 881 882 886 885 891 897 891 889 898 905 897 887 892 896 890 894 904 909 909 902 897 898 897 893 899 906 905 906 907 904 903 906 911 911 911 917 919 906 900 913 924 912 895 891 895 896 896 899 905 908 910 912 911 911 913 912 908 906 899 891 888 885 875 869 866 862 859 857 854 852 849 842 834 828 824 819 813 806 801
846 849 854 856 872 890 891 891 891 878 876 883 883 890 896 891 892 896 898 900 896 891 894 895 896 905 911 909 903 900 902 904 901 904 909 907 905 908 909 909 913 910 907 915 922 918 910 908 918 923 905 885 886 892 890 897 908 910 910 911 913 912 912 913 911 908 905 899 891 888 886 876 868 866 861 855 853 852 849 846 840 833 829 826 821 816 811 804
847 851 852 850 868 891 892 888 888 877 877 889 893 894 894 894 901 900 890 896 903 899 900 902 899 901 903 900 901 904 906 909 910 911 913 912 912 915 915 915 919 915 912 918 925 928 926 915 915 924 908 883 884 893 892 898 903 902 907 912 910 910 910 907 905 903 900 897 894 890 883 874 869 867 860 852 849 848 846 844 839 831 827 825 821 818 813 807